Weather History for Timisoara, Romania

Change the Weather History Date:

Monday, August 5, 2013

  Actual Average Record
Temperature  
Mean Temperature 75 °F -  
Max Temperature 95 °F 81 °F 96 °F (2012)
Min Temperature 55 °F 57 °F 53 °F (2007)
Cooling Degree Days 10    
Growing Degree Days 25 (Base 50)    
Moisture  
Dew Point 54 °F    
Average Humidity 50    
Maximum Humidity 88    
Minimum Humidity 20    
Precipitation  
Precipitation 0.00 in 0.06 in - ()
Sea Level Pressure  
Sea Level Pressure 30.05 in    
Wind  
Wind Speed 4 mph ()    
Max Wind Speed 8 mph    
Max Gust Speed -    
Averages and records for this station are not official NWS values.
T = Trace of Precipitation, MM = Missing Value Source: Averaged Metar Reports

Daily Weather History Graph

Daily Weather History Graph

Search for Another Location

Airport:

Trip Planner

Search our weather history database for the weather conditions in past years. The results will help you decide how hot, cold, wet, or windy it might be!

Date:

Astronomy

Aug. 05, 2013 Rise Set
Actual Time 6:22 AM EEST 8:58 PM EEST
Civil Twilight 5:48 AM EEST 9:31 PM EEST
Nautical Twilight 5:05 AM EEST 10:14 PM EEST
Astronomical Twilight 4:16 AM EEST 11:02 PM EEST
Moon 5:00 AM EEST (8/5) 7:45 PM EEST (8/5)
Length of Visible Light 15h 43m
Length of Day
14h 35m
Waning Crescent, 2% of the Moon is Illuminated
Aug 5
Waning Crescent
Aug 7
New
Aug 14
First Quarter
Aug 21
Full
Aug 28
Last Quarter

Hourly Weather History & Observations

Time (EEST) Temp. Heat Index Dew Point Humidity Pressure Visibility Wind Dir Wind Speed Gust Speed Precip Events Conditions
12:00 AM 71.6 °F - 50.0 °F 46% 30.04 in - North 4.6 mph - N/A   Clear
12:30 AM 68.0 °F - 50.0 °F 52% 30.04 in - NW 6.9 mph - N/A   Clear
1:00 AM 68.0 °F - 50.0 °F 52% 30.06 in - NNE 4.6 mph - N/A   Clear
1:30 AM 68.0 °F - 50.0 °F 52% 30.06 in - NNW 4.6 mph - N/A   Clear
2:00 AM 66.2 °F - 50.0 °F 56% 30.06 in - WNW 3.5 mph - N/A   Clear
2:30 AM 66.2 °F - 51.8 °F 60% 30.06 in - Variable 2.3 mph - N/A   Clear
3:00 AM 62.6 °F - 53.6 °F 72% 30.06 in - ENE 5.8 mph - N/A   Clear
3:30 AM 62.6 °F - 53.6 °F 72% 30.06 in - ENE 2.3 mph - N/A   Clear
4:00 AM 62.6 °F - 53.6 °F 72% 30.06 in - East 3.5 mph - N/A   Clear
4:30 AM 59.0 °F - 53.6 °F 82% 30.06 in - North 3.5 mph - N/A   Clear
5:00 AM 57.2 °F - 53.6 °F 88% 30.06 in - East 4.6 mph - N/A   Clear
5:30 AM 57.2 °F - 53.6 °F 88% 30.06 in - ENE 4.6 mph - N/A   Clear
6:00 AM 57.2 °F - 51.8 °F 82% 30.06 in - WNW 5.8 mph - N/A   Clear
6:30 AM 55.4 °F - 51.8 °F 88% 30.06 in - NE 3.5 mph - N/A   Clear
7:00 AM 57.2 °F - 53.6 °F 88% 30.06 in - ENE 3.5 mph - N/A   Clear
7:30 AM 60.8 °F - 55.4 °F 82% 30.06 in - NW 3.5 mph - N/A   Clear
8:00 AM 62.6 °F - 55.4 °F 77% 30.06 in - NW 3.5 mph - N/A   Clear
8:30 AM 68.0 °F - 57.2 °F 68% 30.06 in - Variable 1.2 mph - N/A   Clear
9:00 AM 69.8 °F - 55.4 °F 60% 30.09 in - ENE 3.5 mph - N/A   Clear
9:30 AM 73.4 °F - 55.4 °F 53% 30.09 in - East 5.8 mph - N/A   Clear
10:00 AM 75.2 °F - 55.4 °F 50% 30.06 in - East 6.9 mph - N/A   Clear
10:30 AM 78.8 °F - 57.2 °F 47% 30.06 in - SSE 4.6 mph - N/A   Clear
11:00 AM 82.4 °F 82.5 °F 59.0 °F 45% 30.06 in - South 5.8 mph - N/A   Clear
11:30 AM 84.2 °F 83.8 °F 59.0 °F 42% 30.06 in - SSW 8.1 mph - N/A   Clear
12:00 PM 86.0 °F 84.9 °F 57.2 °F 37% 30.06 in - SSW 8.1 mph - N/A   Clear
12:30 PM 87.8 °F 86.1 °F 55.4 °F 33% 30.06 in - SSW 6.9 mph - N/A   Clear
1:00 PM 89.6 °F 87.7 °F 55.4 °F 31% 30.06 in - SW 5.8 mph - N/A   Clear
1:30 PM 89.6 °F 88.1 °F 57.2 °F 33% 30.06 in - SSW 5.8 mph - N/A   Clear
2:00 PM 91.4 °F 89.4 °F 55.4 °F 29% 30.06 in - Variable 5.8 mph - N/A   Clear
2:30 PM 91.4 °F 89.4 °F 55.4 °F 29% 30.06 in - WSW 5.8 mph - N/A   Clear
3:00 PM 93.2 °F - 51.8 °F 24% 30.06 in - WSW 5.8 mph - N/A   Clear
3:30 PM 93.2 °F - 51.8 °F 24% 30.04 in - Variable 4.6 mph - N/A   Clear
4:00 PM 93.2 °F - 51.8 °F 24% 30.04 in - Variable 3.5 mph - N/A   Clear
4:30 PM 95.0 °F - 48.2 °F 20% 30.04 in - Variable 1.2 mph - N/A   Clear
5:00 PM 95.0 °F - 48.2 °F 20% 30.01 in - WNW 3.5 mph - N/A   Clear
5:30 PM 95.0 °F - 48.2 °F 20% 30.01 in - Variable 1.2 mph - N/A   Clear
6:00 PM 95.0 °F - 48.2 °F 20% 30.01 in - NNE 4.6 mph - N/A   Clear
6:30 PM 93.2 °F - 51.8 °F 24% 30.01 in - North 5.8 mph - N/A   Clear
7:00 PM 93.2 °F 90.8 °F 53.6 °F 26% 30.01 in - North 4.6 mph - N/A   Clear
7:30 PM 91.4 °F 89.4 °F 55.4 °F 29% 30.01 in - North 6.9 mph - N/A   Clear
8:00 PM 89.6 °F 88.1 °F 57.2 °F 33% 30.01 in - North 6.9 mph - N/A   Clear
8:30 PM 86.0 °F 84.9 °F 57.2 °F 37% 30.01 in - North 5.8 mph - N/A   Clear
9:00 PM 82.4 °F 82.5 °F 59.0 °F 45% 30.01 in - NNW 5.8 mph - N/A   Clear
9:30 PM 80.6 °F 81.1 °F 59.0 °F 48% 30.01 in - North 4.6 mph - N/A   Clear
10:00 PM 77.0 °F - 59.0 °F 54% 30.04 in - North 6.9 mph - N/A   Clear
10:30 PM 75.2 °F - 59.0 °F 57% 30.04 in - NNE 4.6 mph - N/A   Clear
11:00 PM 73.4 °F - 59.0 °F 61% 30.04 in - NNE 6.9 mph - N/A   Clear
11:30 PM 73.4 °F - 59.0 °F 61% 30.04 in - NE 5.8 mph - N/A   Clear